Other Public Products
Issued by NWS Grand Forks, ND

Home | Current Version | Previous Version | Graphics & Text | Print | Product List | Glossary On
Versions: 1 2 3 4 5 6 7 8 9 10 11 12 13 14 15 16 17 18 19 20 21 22 23 24 25 26 27 28 29 30 31 32 33 34 35 36 37 38 39 40 41 42 43 44 45 46 47 48 49 50
000
FPUS83 KFGF 260310
OPUFGF
PRAIRIE TO PINES WEATHER ROUNDUP
NATIONAL WEATHER SERVICE EASTERN NORTH DAKOTA/GRAND FORKS ND
1000 PM CDT THU AUG 25 2016

 **SATELLITE DATA USED TO AUGMENT SKY COVER AT AUTOMATED STATIONS**
 *****  WEATHER ACROSS EASTERN NORTH DAKOTA  *****

CITY           SKY/WX    TMP DP  RH WIND       PRES   REMARKS
GRAND FORKS    PTCLDY    56  51  84 S9        30.04S
GRAND FORKS AF CLEAR     55  51  86 W7        30.05R
GRAND CITY NWS NOT AVBL
BUXTON           N/A     62  57  84 S3          N/A
DEVILS LAKE    CLEAR     57  51  80 CALM      30.07S
FARGO          CLOUDY    63  52  67 SW5       30.07S
WAHPETON ARPT  CLEAR     55  50  82 SW5       30.11R
$$

 *****  WEATHER ACROSS CENTRAL AND WESTERN NORTH DAKOTA  *****

CITY           SKY/WX    TMP DP  RH WIND       PRES   REMARKS
JAMESTOWN      CLEAR     57  50  77 SW6       30.09S
BISMARCK       PTCLDY    58  47  66 S5        30.11S
MINOT          PTCLDY    62  39  42 SE3       30.06S
MINOT AFB      CLEAR     52  42  69 S5        30.05S
GARRISON         N/A     55  45  68 CALM      30.09R
WILLISTON      CLOUDY    61  38  42 SW3       30.09R
DICKINSON      CLEAR     50  39  66 SW8       30.13R
HETTINGER      CLEAR     55  39  54 CALM      30.18R
$$

 *****  OTHER OBSERVATIONS NORTHEAST NORTH DAKOTA  *****

CITY           SKY/WX    TMP DP  RH WIND       PRES   REMARKS
WALHALLA       NOT AVBL
LANGDON        FAIR      50  46  87 CALM      30.06S
CAVALIER       FAIR      54  50  87 CALM      30.04S FOG
GRAFTON        FAIR      55  52  88 S5        30.05S
CANDO          NOT AVBL
FORT TOTTEN      N/A     54  47  76 CALM      29.95S
ROLLA          FAIR      50  50 100 W7        30.07S
RUGBY          NOT AVBL
 ***** THE ABOVE OBSERVATIONS ARE NON NWS ARE NOT QUALITY
        CONTROLLED AND MAY MIS-REPORT RAIN FOR SNOW...
$$

 *****  OTHER OBSERVATIONS SOUTHEAST NORTH DAKOTA *****

CITY           SKY/WX    TMP DP  RH WIND       PRES   REMARKS
COOPERSTOWN    NOT AVBL
VALLEY CITY    FAIR      55  55 100 W8        30.11S
OAKES            N/A    N/A N/A N/A MISG        N/A
GWINNER        FAIR      55  54  94 SW7       30.12R
SHEYENNE NWR     N/A     55  51  87 W2        29.95S
BUFFALO          N/A     60  52  75 SW5         N/A
WYNDMERE       NOT AVBL
 ***** THE ABOVE OBSERVATIONS ARE NON NWS ARE NOT QUALITY
       CONTROLLED AND MAY MIS-REPORT RAIN FOR SNOW...
$$

  *****  WEATHER ACROSS NORTHERN MINNESOTA  *****

CITY           SKY/WX    TMP DP  RH WIND       PRES   REMARKS
FLAG ISLAND    CLEAR     63  52  67 CALM      30.01S
WARROAD        CLEAR     52  48  87 S5        30.04R
ROSEAU         PTCLDY    57  52  82 CALM      30.04R
HALLOCK        CLEAR     54  52  94 CALM      30.04R
THF RVR FALLS  CLEAR     52  48  86 S3        30.07R
HALSTAD          N/A     57  52  82 SW7         N/A
FOSSTON        CLEAR     48  43  81 CALM      30.09R
BAUDETTE       PTCLDY    54  52  93 S5        30.03R
WASKISH        MOCLDY    61  52  72 NW7       30.05S
CROOKSTON      PTCLDY    57  52  82 SW5       30.07R
$$
  *****  WEATHER ACROSS CENTRAL AND WEST MINNESOTA  *****

CITY           SKY/WX    TMP DP  RH WIND       PRES   REMARKS
BEMIDJI        MOCLDY    57  50  76 W3        30.07R
PARK RAPIDS    PTCLDY    56  50  80 CALM      30.08S
WADENA         NOT AVBL
DETROIT LAKES  PTCLDY    59  52  77 W5        30.10S
MOORHEAD       CLOUDY    61  54  77 SW3       30.09S
FERGUS FALLS   CLEAR     57  55  94 W5        30.12R
ELBOW LAKE     CLOUDY    56  55  96 SW5       30.11S
MORRIS MN      PTCLDY    57  55  94 W3        30.11S
STAPLES        CLEAR     54  52  94 CALM      30.09S
WHEATON        CLEAR     57  55  94 SW5       30.13S
$$
  *****  WEATHER ELSEWHERE ACROSS MINNESOTA  *****

CITY           SKY/WX    TMP DP  RH WIND       PRES   REMARKS
DULUTH         MOCLDY    59  55  87 W9        30.04R
INTRNTL FALLS  CLOUDY    53  52  96 CALM      30.03R
ELY            CLOUDY    57  55  94 W7        30.01S
CLOQUET        MOCLDY    61  52  72 W6        30.05S
BRAINERD       PTCLDY    59  53  80 W6        30.08S
HIBBING        CLOUDY    56  53  90 W5        30.04S
ALEXANDRIA     PTCLDY    59  54  83 W7        30.12R
SAINT CLOUD    CLOUDY    62  56  80 W7        30.10R
MINNEAPOLIS    CLEAR     65  53  65 W7        30.10R
$$

  *****  WEATHER ACROSS SOUTH DAKOTA  *****

CITY           SKY/WX    TMP DP  RH WIND       PRES   REMARKS
SIOUX FALLS    CLEAR     61  55  81 CALM      30.16R
BROOKINGS      CLEAR     59  52  77 CALM      30.16R
WATERTOWN      CLEAR     58  51  78 CALM      30.15R
HURON          CLEAR     56  50  80 CALM      30.16R
SISSETON         N/A     58  53  84 W6        30.11R
ABERDEEN       PTCLDY    53  49  86 SW5       30.14R
MITCHELL       CLEAR     58  52  80 N6        30.17R
PIERRE         CLEAR     56  47  71 N5        30.17S
MOBRIDGE       CLEAR     55  47  74 CALM      30.14R
RAPID CITY     PTCLDY    52  45  77 CALM      30.21R
$$

  *****  SOME WEATHER IN NEARBY STATES *****

CITY           SKY/WX    TMP DP  RH WIND       PRES   REMARKS
GLASGOW MT     PTCLDY    63  42  46 NE3       30.10R
GREAT FALLS MT CLOUDY    58  36  43 CALM      30.15R
CHEYENNE WY    CLOUDY    57  44  62 S14       30.25S
SCOTTSBLUFF NE CLOUDY    62  47  57 E12       30.18S
OMAHA NE       PTCLDY    63  60  90 N6        30.14R
DES MOINES IA  PTCLDY    70  63  78 CALM      30.12R
DAVENPORT IA   CLEAR     65  64  97 CALM      30.11R
CHICAGO IL     CLOUDY    70  64  81 W6        30.07R
EAU CLAIRE WI  CLEAR     61  55  81 CALM      30.08R
LA CROSSE WI   CLEAR     68  59  73 NW7       30.09R
$$

  *****  SOME NATIONAL WEATHER *****

CITY           SKY/WX    TMP DP  RH WIND       PRES   REMARKS
LA GUARDIA NY  PTCLDY    81  70  69 SW9       30.00S
RALEIGH NC     PTCLDY    80  69  69 S3        30.08F
ATLANTA GA     PTCLDY    82  70  66 SE3       30.13R
NEW ORLEANS LA MOCLDY    80  76  87 E5        30.04F
OKLAHOMA CITY  MOCLDY    78  66  66 NE15      30.04R THUNDER
ALBUQUERQUE NM PTCLDY    73  48  41 E16       30.15R
SALT LAKE CITY PTCLDY    73  29  19 N3        29.99R
LOS ANGELES CA MOCLDY    66  61  84 W7        29.90S
BOISE ID       CLEAR     75  37  25 W9        29.97S
SEATTLE WA     PTCLDY    83  49  30 N9        29.97F
$$

*** WEATHER ACROSS MANITOBA...SASKATCHEWAN AND ONTARIO ***
                ***ONTARIO***

CITY           SKY/WX    TMP DP  RH WIND       PRES   REMARKS
GERALDTON      DRIZZLE   54  52  94 N6        29.91R FOG
THUNDER BAY    PTCLDY    59  57  94 W6        29.92R
SIOUX LOOKOUT  CLEAR     45  45 100 N2        29.99S
TORONTO        PTCLDY    75  72  88 NW8       29.92S
BIG TROUT LK   CLEAR     57  52  82 SW6       29.85F
PICKLE LAKE    NOT AVBL
DRYDEN         CLEAR     54  52  94 NW5       30.01S
KENORA         PTCLDY    59  48  67 W6        30.02S
$$
                *** MANITOBA***

CITY           SKY/WX    TMP DP  RH WIND       PRES   REMARKS
BRANDON        CLEAR     52  48  87 NE2       30.04R
DAUPHIN        PTCLDY    55  52  88 W5        30.01R
ISLAND LAKE    PTCLDY    61  55  82 SW5       29.88F
PILOT MOUND      N/A     57  46  67 S2          N/A
THE PAS        PTCLDY    61  52  72 SW3       29.93S
THOMPSON       MOCLDY    59  50  72 VRB2      29.84S
WINNIPEG       PTCLDY    57  50  77 NE2       30.02S
LYNN LAKE      CLOUDY    59  55  88 MISG      29.91R
GILLAM         LGT RAIN  61  55  82 E6        29.82F
$$
                ***SASKATCHEWAN***

CITY           SKY/WX    TMP DP  RH WIND       PRES   REMARKS
ESTEVAN        MOCLDY    55  45  67 NW6       30.05S
KINDERSLEY     MOCLDY    54  52  94 W5        30.06S
LLOYDMINSTER   LGT RAIN  54  52  94 W6        30.06S
PRINCE ALBERT  MOCLDY    57  52  82 W3        29.96S
REGINA         MOCLDY    57  54  88 W7        30.06S
YORKTON        CLEAR     57  50  77 SE8       30.02R
N. BATTLEFORD  CLOUDY    55  55 100 NW6       30.03S  C1F1C2F2C3F3C4F4C5F5C6F6C7F7C8F8C9F9CaFaCbFbCcFcCdFdCe!



USA.gov is the U.S. government's official web portal to all federal, state and local government web resources and services.